Back to catalog

BREEZE-M R/B

AliveMEO
NORAD 43868·ROCKET BODY·🇷🇺 Russia

Launched Dec 21, 2018 from Baikonur Cosmodrome

Loading…

Next Passes (next 24 hours)

TLE

FreshSource: Space-Track

Epoch: Sep 13, 2026, 19:32 UTC

1 43868U 18107B   26256.81451499 -.00000206  00000-0  00000-0 0  9997
2 43868   7.6792  72.7137 0728942 314.9953  39.4574  0.90470139 25513

Track BREEZE-M R/B in real time with AllMySat

Download on the App Store